Back to catalog

STARLINK-3845

AliveCommunicationsVLEO
NORAD 52541·PAYLOAD·🇺🇸 United States

Launched May 13, 2022 from Vandenberg Space Force Base

Loading…

Next Passes (next 24 hours)

TLE

FreshSource: CelesTrak SupGP

Epoch: Sep 14, 2026, 22:00 UTC

1 52541C 22051J   26257.91715278 -.00031988  00000+0 -91524-3 0  2570
2 52541  53.1585 352.1922 0001278  82.5861 321.6364 15.35412942    10

Track STARLINK-3845 in real time with AllMySat

Download on the App Store